Location: Unspecified
(0.0000°N, 0.0000°E)
Time: 17:11:22
(UTC+00:00)

Vanguard 1 - All Passes

Search period start: 16 August 2017 00:00
Search period end: 26 August 2017 00:00
Orbit: 653 x 3831 km, 34.2° (Epoch: 15 August)

Date Brightness Start Highest point End Pass type
(mag) Time Alt. Az. Time Alt. Az. Time Alt. Az.
16 Aug - 01:05:29 10° NW 01:24:20 68° NE 01:47:43 10° ESE visible
16 Aug - 03:30:06 10° WNW 03:52:09 58° SW 04:12:38 10° SE visible
16 Aug - 06:04:51 10° WSW 06:20:52 23° SSW 06:33:19 10° SSE daylight
16 Aug - 13:35:11 10° SW 13:40:36 48° SE 13:44:53 10° ENE daylight
16 Aug - 15:58:26 10° WNW 16:00:49 14° NNW 16:03:20 10° N daylight
16 Aug - 23:06:09 10° NNW 23:19:26 33° NE 23:38:20 10° E visible
17 Aug - 01:26:37 10° NW 01:46:04 82° NE 02:09:43 10° SE visible
17 Aug - 03:52:43 10° WNW 04:14:12 47° SW 04:33:37 10° SE visible
17 Aug - 06:30:43 10° WSW 06:43:44 18° SSW 06:54:00 10° SSE daylight
17 Aug - 11:36:05 10° SSW 11:40:08 15° SSE 11:43:22 10° SE daylight
17 Aug - 13:56:15 10° SW 14:01:42 87° NW 14:06:06 10° NE daylight
17 Aug - 21:11:07 10° NNE 21:14:56 11° NNE 21:19:19 10° NE visible
17 Aug - 23:26:41 10° NNW 23:41:10 43° NE 00:02:09 10° ESE visible
18 Aug - 01:47:58 10° NW 02:07:52 84° SW 02:31:23 10° SE visible
18 Aug - 04:15:57 10° W 04:36:27 38° SSW 04:54:32 10° SSE visible
18 Aug - 06:57:08 10° SW 07:06:53 15° SSW 07:14:49 10° S daylight
18 Aug - 11:56:10 10° SSW 12:01:56 22° SSE 12:06:05 10° ESE daylight
18 Aug - 14:17:46 10° WSW 14:22:42 43° NW 14:26:54 10° NE daylight
18 Aug - 21:29:54 10° N 21:37:13 16° NE 21:46:51 10° ENE visible
18 Aug - 23:47:23 10° NW 00:02:46 55° NE 00:25:16 10° ESE visible
19 Aug - 02:09:37 10° WNW 02:29:44 70° SW 02:52:48 10° SE visible
19 Aug - 04:39:53 10° W 04:58:59 31° SSW 05:15:27 10° SSE visible
19 Aug - 07:23:26 10° SW 07:30:16 13° SSW 07:36:01 10° S daylight
19 Aug - 09:56:12 10° S 09:59:28 12° S 10:02:16 10° SSE daylight
19 Aug - 12:16:45 10° SW 12:23:30 35° SSE 12:28:02 10° E daylight
19 Aug - 14:39:51 10° W 14:43:42 22° NW 14:47:12 10° NNE daylight
19 Aug - 21:49:42 10° N 21:59:10 23° NE 22:12:42 10° E visible
20 Aug - 00:08:13 10° NW 00:24:19 68° NE 00:47:49 10° ESE visible
20 Aug - 02:31:38 10° WNW 02:51:47 57° SW 03:14:03 10° SE visible
20 Aug - 05:04:36 10° WSW 05:21:51 25° SSW 05:36:26 10° SSE visible
20 Aug - 07:48:31 10° SSW 07:53:40 12° S 07:58:07 10° SSE daylight
20 Aug - 10:16:03 10° SSW 10:21:51 16° SSE 10:26:13 10° SE daylight
20 Aug - 12:37:43 10° SW 12:44:50 61° SSE 12:49:30 10° ENE daylight
20 Aug - 15:03:11 10° WNW 15:04:50 12° NW 15:06:25 10° NNW daylight
20 Aug - 22:09:52 10° NNW 22:20:49 31° NE 22:37:29 10° E visible
21 Aug - 00:29:15 10° NW 00:45:55 83° NE 01:09:56 10° SE visible
21 Aug - 02:54:06 10° W 03:14:00 47° SSW 03:35:11 10° SE visible
21 Aug - 05:30:01 10° WSW 05:45:05 20° SSW 05:57:36 10° SSE visible
21 Aug - 08:11:35 10° SSW 08:16:58 12° S 08:21:29 10° SSE daylight
21 Aug - 10:36:27 10° SSW 10:43:57 22° SSE 10:49:04 10° ESE daylight
21 Aug - 12:59:04 10° WSW 13:05:57 77° NW 13:10:33 10° NE daylight
21 Aug - 22:30:14 10° NNW 22:42:16 41° NE 23:01:24 10° ESE visible
22 Aug - 00:50:31 10° WNW 01:07:37 82° SW 01:31:43 10° SE visible
22 Aug - 03:17:08 10° W 03:36:31 38° SSW 03:56:19 10° SSE visible
22 Aug - 05:55:50 10° SW 06:08:36 17° SSW 06:19:07 10° SSE daylight
22 Aug - 08:33:14 10° SSW 08:40:01 14° S 08:45:21 10° SE daylight
22 Aug - 10:57:11 10° SSW 11:05:50 31° SSE 11:11:15 10° E daylight
22 Aug - 13:20:49 10° WSW 13:26:53 41° NW 13:31:13 10° NNE daylight
22 Aug - 20:35:07 10° N 20:39:45 13° NE 20:45:29 10° ENE visible
22 Aug - 22:50:48 10° NW 23:03:36 53° NE 23:24:36 10° ESE visible
23 Aug - 01:12:04 10° WNW 01:29:31 67° SW 01:53:15 10° SE visible
23 Aug - 03:40:48 10° W 03:59:19 31° SSW 04:17:28 10° SSE visible
23 Aug - 06:21:21 10° SW 06:32:18 16° S 06:41:14 10° SSE daylight
23 Aug - 08:54:21 10° SSW 09:02:47 17° SSE 09:08:54 10° SE daylight
23 Aug - 11:18:09 10° SW 11:27:28 46° SSE 11:32:57 10° ENE daylight
23 Aug - 13:43:10 10° W 13:47:46 22° NW 13:51:25 10° NNE daylight
23 Aug - 20:54:10 10° N 21:01:26 20° NE 21:11:45 10° E visible
23 Aug - 23:11:33 10° NW 23:24:57 68° NE 23:47:14 10° ESE visible
24 Aug - 01:33:58 10° WNW 01:51:38 55° SSW 02:14:38 10° SE visible
24 Aug - 04:05:10 10° WSW 04:22:30 25° SSW 04:38:48 10° SSE visible
24 Aug - 06:45:52 10° SSW 06:55:59 15° S 07:04:06 10° SSE daylight
24 Aug - 09:15:19 10° SSW 09:25:16 22° SSE 09:31:53 10° ESE daylight
24 Aug - 11:39:24 10° SW 11:48:50 73° SE 11:54:15 10° ENE daylight
24 Aug - 14:06:48 10° WNW 14:08:45 12° NW 14:10:32 10° NNW daylight
24 Aug - 21:14:01 10° NNW 21:22:49 28° NE 21:36:35 10° E visible
24 Aug - 23:32:30 10° NW 23:46:24 85° NE 00:09:26 10° SE visible
25 Aug - 01:56:18 10° W 02:13:59 45° SSW 02:35:55 10° SE visible
25 Aug - 04:30:08 10° WSW 04:46:03 22° SSW 05:00:26 10° SSE visible
25 Aug - 07:09:04 10° SSW 07:19:30 16° S 07:27:32 10° SE daylight
25 Aug - 09:36:19 10° SSW 09:47:28 29° SSE 09:54:18 10° E daylight
25 Aug - 12:01:00 10° WSW 12:09:57 71° NW 12:15:11 10° NE daylight
25 Aug - 21:34:14 10° NNW 21:44:01 38° NE 22:00:29 10° ESE visible
